FW6482 Weather Reports


time (UTC)temp
C
wind
direction
speed
KPH
gust
KPH
rain 1hr
cm
rain 24hr
cm
rain mn
cm
humidity
%
barometer
mb
20260507060027 7 301 0.0 8.0 0.00 0.28 0.03 96 1011.2
20260507054520 7 302 0.0 9.7 0.00 0.33 0.03 96 1011.1
20260507053016 7 309 0.0 3.2 0.00 0.33 0.03 96 1011.0
20260507051512 7 309 0.0 6.4 0.00 0.33 0.03 96 1010.8
20260507050029 7 309 0.0 6.4 0.00 0.33 0.03 96 1010.7
20260507044506 7 309 0.0 4.8 0.00 0.33 0.03 96 1010.5
20260507043005 7 309 0.0 3.2 0.00 0.33 0.03 96 1010.4
20260507041510 7 309 0.0 3.2 0.00 0.33 0.03 95 1010.2
20260507040001 7 309 0.0 1.6 0.00 0.33 0.03 95 1010.1
20260507034601 7 309 0.0 1.6 0.00 0.36 0.03 95 1010.1
20260507033059 7 309 0.0 3.2 0.00 0.36 0.03 95 1010.0
20260507031557 7 309 0.0 1.6 0.00 0.36 0.03 95 1009.9
20260507030058 7 309 0.0 1.6 0.00 0.36 0.03 96 1009.8
20260507024556 7 309 0.0 3.2 0.00 0.46 0.03 96 1009.8
20260507023055 7 307 0.0 3.2 0.00 0.46 0.03 96 1009.8
20260507021553 7 307 0.0 3.2 0.00 0.46 0.03 96 1009.7
20260507014557 7 307 0.0 4.8 0.00 0.48 0.03 96 1009.4
20260507013050 7 307 0.0 3.2 0.00 0.48 0.03 96 1009.3
20260507011548 7 307 0.0 1.6 0.00 0.48 0.03 96 1009.2
20260507010058 7 307 0.0 8.0 0.03 0.48 0.03 96 1009.1
20260507004545 7 11 0.0 8.0 0.03 0.48 0.03 95 1009.0
20260507003043 7 285 0.0 4.8 0.03 0.48 0.03 95 1008.9
20260507001541 7 351 0.0 1.6 0.03 0.48 0.03 95 1008.9
20260507000042 7 355 0.0 3.2 0.00 0.46 0.00 95 1008.8
20260506234540 7 355 0.0 3.2 0.00 0.51 0.00 95 1008.8
20260506233039 7 355 0.0 3.2 0.00 0.51 0.00 95 1008.8
20260506231546 7 355 0.0 3.2 0.00 0.51 0.00 95 1008.8
20260506230050 7 355 0.0 4.8 0.00 0.51 0.00 95 1008.7
20260506224538 7 23 0.0 4.8 0.00 0.58 0.00 95 1008.6
20260506223032 8 24 0.0 3.2 0.00 0.58 0.00 95 1008.5
20260506221530 8 24 0.0 4.8 0.00 0.58 0.00 96 1008.4
20260506220035 8 22 0.0 6.4 0.00 0.58 0.00 96 1008.2
20260506214526 8 24 0.0 6.4 0.00 0.69 0.58 96 1008.1
20260506213024 8 92 0.0 4.8 0.00 0.69 0.58 95 1008.0
20260506211529 8 88 0.0 3.2 0.00 0.69 0.58 95 1007.9
20260506210025 8 286 1.6 6.4 0.00 0.69 0.58 95 1007.7
20260506204520 8 285 0.0 4.8 0.00 0.81 0.58 95 1007.6
20260506203018 8 250 1.6 8.0 0.00 0.81 0.58 95 1007.7
20260506201527 8 321 0.0 4.8 0.00 0.81 0.58 95 1007.6
20260506200015 8 321 0.0 4.8 0.00 0.81 0.58 95 1007.5
20260506194512 8 310 0.0 6.4 0.00 1.02 0.58 95 1007.4
20260506193010 8 311 0.0 4.8 0.00 1.02 0.58 95 1007.2
20260506191509 8 313 0.0 4.8 0.03 1.02 0.58 95 1007.0
20260506190012 8 323 0.0 3.2 0.03 1.02 0.58 95 1006.9
20260506184514 8 323 0.0 4.8 0.03 1.22 0.58 95 1006.7
20260506183002 8 9 3.2 12.9 0.03 1.22 0.58 95 1006.6
20260506181502 8 258 0.0 9.7 0.00 1.19 0.56 95 1006.5
20260506180100 8 252 0.0 8.0 0.00 1.19 0.56 94 1006.3
20260506174559 8 292 0.0 11.3 0.00 1.37 0.56 94 1006.2
20260506173059 8 293 0.0 8.0 0.03 1.37 0.56 94 1006.1
20260506171606 8 248 1.6 11.3 0.03 1.37 0.56 94 1006.0
20260506170056 8 308 0.0 8.0 0.03 1.37 0.56 94 1006.0
20260506164550 8 309 0.0 6.4 0.03 1.55 0.56 94 1005.9
20260506163047 8 309 0.0 6.4 0.00 1.52 0.53 93 1005.8
20260506161546 9 309 1.6 4.8 0.00 1.52 0.53 93 1005.8
20260506160054 9 309 0.0 4.8 0.00 1.52 0.53 93 1005.7
20260506154540 9 309 0.0 6.4 0.00 1.60 0.53 93 1005.6
20260506153039 10 309 0.0 3.2 0.00 1.60 0.53 93 1005.6
20260506151541 10 259 1.6 8.0 0.00 1.60 0.53 94 1005.4
20260506150035 10 296 0.0 8.0 0.03 1.60 0.53 93 1005.3
20260506144546 10 302 0.0 8.0 0.03 1.60 0.53 93 1005.3
20260506143035 10 13 0.0 8.0 0.03 1.60 0.53 94 1005.1
20260506141532 10 80 0.0 4.8 0.05 1.60 0.53 94 1005.1
20260506140034 10 188 0.0 6.4 0.03 1.57 0.51 94 1005.0
20260506134529 10 97 1.6 6.4 0.03 1.57 0.51 94 1004.9
20260506133031 10 5 1.6 6.4 0.03 1.57 0.51 94 1004.9
20260506131527 10 158 0.0 4.8 0.03 1.55 0.51 94 1004.9
20260506130026 10 207 0.0 6.4 0.05 1.55 0.51 94 1004.7
20260506124528 10 292 0.0 6.4 0.05 1.55 0.51 94 1004.5
20260506123023 10 152 0.0 8.0 0.05 1.55 0.51 94 1004.4
20260506121522 10 243 1.6 8.0 0.03 1.55 0.48 94 1004.4
20260506120021 11 5 0.0 8.0 0.00 1.52 0.46 94 1004.3
20260506114533 11 170 0.0 8.0 0.00 1.52 0.46 94 1004.2
20260506113021 10 33 1.6 6.4 0.00 1.52 0.46 94 1004.2
20260506111519 11 238 0.0 3.2 0.00 1.52 0.46 94 1004.1
20260506110021 10 238 1.6 8.0 0.03 1.52 0.46 94 1004.0
20260506104519 11 11 0.0 4.8 0.03 1.52 0.46 95 1003.9
20260506103018 11 26 0.0 4.8 0.03 1.52 0.46 95 1003.8
20260506101519 11 302 1.6 11.3 0.03 1.52 0.46 95 1003.7
20260506100023 11 322 0.0 4.8 0.00 1.50 0.43 95 1003.5
20260506094517 11 322 0.0 8.0 0.00 1.50 0.43 96 1003.5
20260506093015 11 336 0.0 6.4 0.03 1.50 0.43 96 1003.4
20260506091518 11 335 0.0 8.0 0.03 1.50 0.43 96 1003.3
20260506090013 11 344 0.0 6.4 0.05 1.50 0.43 96 1003.2
20260506084511 10 342 0.0 4.8 0.05 1.50 0.43 96 1003.0
20260506083010 10 327 0.0 8.0 0.05 1.45 0.43 96 1003.0
20260506081510 10 327 3.2 9.7 0.05 1.45 0.43 96 1003.0
20260506073006 10 319 3.2 6.4 0.03 1.42 0.36 96 1002.8
20260506071505 10 319 1.6 6.4 0.05 1.42 0.36 96 1002.8
20260506061558 10 320 0.0 6.4 0.05 1.37 0.33 96 1002.5